Normandy Park, Washington, United States
Lat: 47.44N, Lon: 122.34W
Wx Zone: WAZ508
Local Info
Past Weather Observations for Today

NOTE: This archive is for the closest National Weather Service station to Normandy Park. Information may differ from the station used for current weather conditions.

Click here for Long-term Archive

Time Weather Temperature Dewpoint Humidity Pressure Winds Precip Visibility
15:53
Mostly Cloudy
57°F / 14°C 43°F / 6°C 59% 30.12 in
(1020 mb)
S 6.9 mph
(S 11 kph)
- 10SM
14:53
Mostly Cloudy
63°F / 17°C 43°F / 6°C 49% 30.12 in
(1020 mb)
SW 5.8 mph
(SW 9 kph)
- 10SM
13:53
Mostly Cloudy
63°F / 17°C 43°F / 6°C 49% 30.12 in
(1020 mb)
SSW 4.6 mph
(SSW 7 kph)
- 10SM
12:53
Mostly Cloudy
61°F / 16°C 46°F / 8°C 59% 30.15 in
(1021 mb)
WNW 4.6 mph
(WNW 7 kph)
- 10SM
11:53
Partly Cloudy
Fog
55°F / 13°C 46°F / 8°C 72% 30.18 in
(1022 mb)
Calm - 10SM
10:53
Mostly Cloudy
Fog
46°F / 8°C 45°F / 7°C 93% 30.18 in
(1022 mb)
S 3.5 mph
(S 6 kph)
- 6SM
10:35
Partly Cloudy
Fog
45°F / 7°C 45°F / 7°C 100% 30.21 in
(1023 mb)
SSE 4.6 mph
(SSE 7 kph)
- 3SM
09:57
Partly Cloudy
Fog And Mist
45°F / 7°C 43°F / 6°C 93% 30.21 in
(1023 mb)
SE 3.5 mph
(SE 6 kph)
- 3/4SM
09:53
Mostly Cloudy
Fog
43°F / 6°C 43°F / 6°C 100% 30.21 in
(1023 mb)
SE 3.5 mph
(SE 6 kph)
- 1/4SM
08:53
Obscured
Fog
43°F / 6°C 43°F / 6°C 100% 30.21 in
(1023 mb)
S 3.5 mph
(S 6 kph)
- 1/8SM
08:40
Obscured
Fog
43°F / 6°C 43°F / 6°C 100% 30.21 in
(1023 mb)
S 3.5 mph
(S 6 kph)
- 1/8SM
07:53
Obscured
Fog
43°F / 6°C 43°F / 6°C 100% 30.18 in
(1022 mb)
SSW 5.8 mph
(SSW 9 kph)
- 1/4SM
07:10
Obscured
Fog
41°F / 5°C 39°F / 4°C 93% 30.18 in
(1022 mb)
Calm - 1/4SM
06:53
Overcast
Fog And Mist
39°F / 4°C 37°F / 3°C 93% 30.18 in
(1022 mb)
Calm - 1/4SM
06:39
Overcast
Fog
37°F / 3°C 37°F / 3°C 100% 30.18 in
(1022 mb)
S 4.6 mph
(S 7 kph)
- 1/2SM
06:14
Mostly Cloudy
Fog
39°F / 4°C 37°F / 3°C 93% 30.18 in
(1022 mb)
SE 5.8 mph
(SE 9 kph)
- 1/2SM
05:53
Partly Cloudy
Fog And Mist
39°F / 4°C 37°F / 3°C 93% 30.18 in
(1022 mb)
E 4.6 mph
(E 7 kph)
- 3SM
05:45
Obscured
Fog
39°F / 4°C 39°F / 4°C 100% 30.21 in
(1023 mb)
SE 3.5 mph
(SE 6 kph)
- 1/4SM
05:27
Obscured
Fog
39°F / 4°C 39°F / 4°C 100% 30.21 in
(1023 mb)
S 3.5 mph
(S 6 kph)
- 1/4SM
05:12
Mostly Cloudy
Fog
39°F / 4°C 37°F / 3°C 93% 30.21 in
(1023 mb)
SE 5.8 mph
(SE 9 kph)
- 1/4SM
04:53
Clear
39°F / 4°C 37°F / 3°C 93% 30.21 in
(1023 mb)
SE 5.8 mph
(SE 9 kph)
- 10SM
03:53
Clear
43°F / 6°C 41°F / 5°C 93% 30.21 in
(1023 mb)
Calm - 10SM
02:53
Clear
45°F / 7°C 41°F / 5°C 87% 30.21 in
(1023 mb)
N 9.2 mph
(N 15 kph)
- 10SM
01:53
Clear
45°F / 7°C 41°F / 5°C 87% 30.24 in
(1024 mb)
N 10.4 mph
(N 17 kph)
- 10SM
00:53
Clear
45°F / 7°C 43°F / 6°C 93% 30.24 in
(1024 mb)
N 10.4 mph
(N 17 kph)
- 10SM
Time Weather Temperature Dewpoint Humidity Pressure Winds Precip Visibility


Weather for websites

WeatherForYou.com, LLC is not responsible for any damages or problems caused by this service. Current weather conditions are obtained from the closest station including government and personal stations which may have varying degrees of accuracy. Weather forecasts are derived from the NOAA NDFD. Like all things, this site belongs to Jesus Christ... He just trusts us to maintain it. If you have any questions or comments email webmaster@weatherforyou.com

Copyright © 2016, WeatherForYou.com LLC. All rights reserved.